Location: Fontevrault
(47.1823°N, 0.0493°E)
Time: 09:40:36
(UTC+00:00)

Lacrosse 5 - Pass Details

Date: 30 October 2021
Orbit: 714 x 724 km, 57.0° (Epoch: 28 August)

Event Time Altitude Azimuth Distance (km) Brightness Sun altitude
Rises 18:49:20 0° 214° (SW) 3,126 5.6 -21.4°
Reaches altitude 10° 18:51:45 10° 210° (SSW) 2,208 4.7 -21.8°
Maximum altitude 18:56:42 53° 134° (SE) 885 2.0 -22.7°
Enters shadow 18:56:45 53° 132° (SE) 885 2.0 -22.7°
